Home   Weather   Taichung   Past weeks

Flag for Taiwan Past Weather in Taichung, Taiwan — Yesterday and Last 2 Weeks

Now
59 °F

Passing clouds.


Feels Like: 55 °F
Forecast: 61 / 69 °F
Wind: 23 mph from Northeast

Location: Chiang Kai Shek

Current Time: Jan 24, 2017 at 9:42:01 pm

Latest Report: Jan 24, 2017 at 9:00 pm


Visibility: N/A

Pressure: 30.36 "Hg

Humidity: 72%

Dew Point: 50 °F

Location of TaichungLocation

Past Weather in Taichung — Graph

°F

Taichung Temperature Yesterday

Maximum temperature yesterday: 64 °F (at 12:00 pm)
Minimum temperature yesterday: 55 °F (at 4:30 am)
Average temperature yesterday: 59 °F

High & Low Weather Summary for the Past Weeks

 TemperatureHumidityPressure
High73 °F (Jan 17, 12:00 pm)100% (Jan 13, 5:00 am)30.42 "Hg (Jan 13, 5:00 am)
Low54 °F (Jan 14, 6:00 am)52% (Jan 22, 11:00 am)29.92 "Hg (Jan 12, 2:30 pm)
Average61 °F78%30.19 "Hg
* Reported Jan 9 8:00 pm — Jan 24 8:30 pm, Taichung, Weather by CustomWeather, © 2017

Note: Actual official high and low records may vary slightly from our data, if they occured in-between our weather recording intervals... More about our weather records

Advertising

Taichung Weather History for the Previous 24 Hours

Scroll right to see more
 ConditionsComfort  
Time TempWeatherWind HumidityBarometerVisibility
8:30 pm
Tue, Jan 24
59 °FPassing clouds.26 mph72%30.36 "HgN/A
8:00 pm59 °FPassing clouds.24 mph77%30.36 "HgN/A
7:30 pm59 °FPassing clouds.22 mph77%30.36 "HgN/A
7:00 pm59 °FPassing clouds.21 mph77%30.33 "HgN/A
6:30 pm57 °FPassing clouds.24 mph82%30.33 "HgN/A
6:00 pm57 °FPassing clouds.24 mph82%30.33 "HgN/A
5:30 pm59 °FPartly sunny.22 mph77%30.33 "HgN/A
5:00 pm59 °FPartly sunny.28 mph72%30.30 "HgN/A
4:30 pm59 °FPartly sunny.28 mph77%30.30 "HgN/A
4:17 pm59 °FPartly sunny.26 mph77%30.30 "HgN/A
4:00 pm59 °FPartly sunny.26 mph77%30.30 "HgN/A
3:30 pm61 °FPartly sunny.25 mph72%30.30 "HgN/A
3:00 pm61 °FPartly sunny.25 mph72%30.27 "HgN/A
2:30 pm61 °FPartly sunny.24 mph72%30.27 "HgN/A
2:00 pm61 °FPartly sunny.26 mph72%30.27 "HgN/A
1:30 pm63 °FPartly sunny.23 mph68%30.27 "HgN/A
1:00 pm63 °FPartly sunny.24 mph68%30.30 "HgN/A
12:30 pm63 °FPartly sunny.23 mph68%30.30 "HgN/A
12:00 pm63 °FPartly sunny.24 mph68%30.30 "HgN/A
11:30 am63 °FPartly sunny.24 mph68%30.33 "HgN/A
11:00 am63 °FPartly sunny.22 mph68%30.33 "HgN/A
10:30 am61 °FPartly sunny.24 mph68%30.33 "HgN/A
10:00 am63 °FPartly sunny.21 mph68%30.36 "HgN/A
9:30 am61 °FPartly sunny.20 mph68%30.36 "HgN/A
9:00 am61 °FPartly sunny.15 mph68%30.33 "HgN/A
8:30 am59 °FPartly sunny.15 mph68%30.33 "HgN/A
8:00 am59 °FBroken clouds.17 mph68%30.36 "HgN/A
7:30 am59 °FPartly sunny.16 mph68%30.36 "HgN/A
7:00 am59 °FPartly sunny.15 mph68%30.36 "HgN/A
6:30 am59 °FPassing clouds.14 mph68%30.33 "HgN/A
6:00 am57 °FPassing clouds.15 mph72%30.33 "HgN/A
5:30 am59 °FLight rain. Passing clouds.18 mph63%30.33 "HgN/A
5:00 am59 °FPassing clouds.18 mph68%30.33 "HgN/A
4:00 am57 °FPassing clouds.15 mph63%30.33 "HgN/A
3:30 am57 °FPassing clouds.14 mph63%30.33 "HgN/A
3:00 am57 °FPassing clouds.14 mph63%30.33 "HgN/A
2:30 am57 °FPassing clouds.14 mph63%30.33 "HgN/A
2:00 am57 °FPartly cloudy.20 mph63%30.33 "HgN/A
1:30 am57 °FPartly cloudy.21 mph67%30.33 "HgN/A
1:00 am57 °FPartly cloudy.21 mph67%30.33 "HgN/A
12:30 am57 °FPartly cloudy.23 mph67%30.36 "HgN/A
12:00 am57 °FPartly cloudy.24 mph67%30.36 "HgN/A
11:30 pm
Mon, Jan 23
59 °FPassing clouds.21 mph63%30.36 "HgN/A
11:00 pm59 °FPassing clouds.23 mph63%30.36 "HgN/A
10:30 pm59 °FPassing clouds.23 mph63%30.36 "HgN/A
10:00 pm57 °FPassing clouds.23 mph67%30.36 "HgN/A
9:30 pm57 °FPassing clouds.23 mph63%30.36 "HgN/A
9:00 pm57 °FPassing clouds.23 mph67%30.36 "HgN/A
Weather by CustomWeather, © 2017

See weather overviewHow to use our weather pages